| time (UTC) | temp F | wind direction | speed MPH | gust MPH | rain 1hr in | rain 24hr in | rain mn in | humidity % | barometer mb |
| 20260505010036 | 62 | 200 | 7.0 | 11.0 | 0.00 | 0.00 | 0.00 | 52 | 950.0 |
| 20260505004539 | 62 | 165 | 8.0 | 13.0 | 0.00 | 0.00 | 0.00 | 51 | 949.8 |
| 20260505003033 | 63 | 190 | 6.0 | 13.0 | 0.00 | 0.00 | 0.00 | 50 | 949.7 |
| 20260505001533 | 63 | 191 | 7.0 | 11.0 | 0.00 | 0.00 | 0.00 | 49 | 949.7 |
| 20260505000039 | 64 | 215 | 6.0 | 16.0 | 0.00 | 0.00 | 0.00 | 48 | 949.7 |
| 20260504234533 | 65 | 188 | 12.0 | 21.0 | 0.00 | 0.00 | 0.00 | 47 | 949.4 |
| 20260504233032 | 66 | 189 | 7.0 | 17.0 | 0.00 | 0.00 | 0.00 | 45 | 949.2 |
| 20260504231531 | 67 | 179 | 6.0 | 13.0 | 0.00 | 0.00 | 0.00 | 44 | 949.3 |
| 20260504230030 | 67 | 172 | 9.0 | 16.0 | 0.00 | 0.00 | 0.00 | 43 | 949.2 |
| 20260504224529 | 69 | 180 | 7.0 | 17.0 | 0.00 | 0.00 | 0.00 | 38 | 949.3 |
| 20260504223028 | 69 | 239 | 10.0 | 16.0 | 0.00 | 0.00 | 0.00 | 37 | 949.2 |
| 20260504221529 | 69 | 226 | 10.0 | 17.0 | 0.00 | 0.00 | 0.00 | 38 | 949.1 |
| 20260504220027 | 70 | 209 | 8.0 | 16.0 | 0.00 | 0.00 | 0.00 | 38 | 949.2 |
| 20260504214525 | 70 | 226 | 9.0 | 16.0 | 0.00 | 0.00 | 0.00 | 38 | 949.2 |
| 20260504213044 | 70 | 246 | 13.0 | 20.0 | 0.00 | 0.00 | 0.00 | 38 | 949.2 |
| 20260504211523 | 69 | 207 | 12.0 | 19.0 | 0.00 | 0.00 | 0.00 | 40 | 949.3 |
| 20260504210026 | 69 | 229 | 9.0 | 23.0 | 0.00 | 0.00 | 0.00 | 39 | 949.4 |
| 20260504204522 | 70 | 244 | 11.0 | 16.0 | 0.00 | 0.00 | 0.00 | 40 | 949.5 |
| 20260504203020 | 70 | 221 | 10.0 | 20.0 | 0.00 | 0.00 | 0.00 | 40 | 949.7 |
| 20260504201522 | 69 | 229 | 10.0 | 17.0 | 0.00 | 0.00 | 0.00 | 42 | 949.9 |
| 20260504200018 | 69 | 219 | 9.0 | 18.0 | 0.00 | 0.00 | 0.00 | 43 | 950.1 |
| 20260504194514 | 68 | 208 | 10.0 | 18.0 | 0.00 | 0.00 | 0.00 | 43 | 950.2 |
| 20260504193008 | 67 | 224 | 10.0 | 19.0 | 0.00 | 0.00 | 0.00 | 45 | 950.3 |
| 20260504191507 | 67 | 211 | 11.0 | 20.0 | 0.00 | 0.00 | 0.00 | 44 | 950.4 |
| 20260504190007 | 66 | 225 | 10.0 | 18.0 | 0.00 | 0.00 | 0.00 | 45 | 950.6 |
| 20260504184511 | 67 | 242 | 12.0 | 19.0 | 0.00 | 0.00 | 0.00 | 45 | 950.7 |
| 20260504183006 | 67 | 234 | 14.0 | 22.0 | 0.00 | 0.00 | 0.00 | 45 | 950.8 |
| 20260504181503 | 67 | 262 | 13.0 | 22.0 | 0.00 | 0.00 | 0.00 | 44 | 950.7 |
| 20260504180100 | 67 | 227 | 15.0 | 23.0 | 0.00 | 0.00 | 0.00 | 44 | 950.9 |
| 20260504174612 | 66 | 222 | 10.0 | 20.0 | 0.00 | 0.00 | 0.00 | 46 | 951.0 |
| 20260504173059 | 67 | 215 | 13.0 | 21.0 | 0.00 | 0.00 | 0.00 | 46 | 951.0 |
| 20260504171553 | 65 | 213 | 12.0 | 20.0 | 0.00 | 0.00 | 0.00 | 48 | 951.1 |
| 20260504081526 | 44 | 222 | 7.0 | 12.0 | 0.00 | 0.00 | 0.00 | 62 | 953.2 |
| 20260504050002 | 47 | 221 | 7.0 | 14.0 | 0.00 | 0.00 | 0.00 | 57 | 953.4 |
| 20260504044501 | 47 | 209 | 6.0 | 11.0 | 0.00 | 0.00 | 0.00 | 57 | 953.3 |
| 20260504043101 | 48 | 205 | 4.0 | 8.0 | 0.00 | 0.00 | 0.00 | 57 | 953.3 |
| 20260504041554 | 49 | 213 | 4.0 | 8.0 | 0.00 | 0.00 | 0.00 | 56 | 953.6 |
| 20260504040052 | 49 | 240 | 4.0 | 9.0 | 0.00 | 0.00 | 0.00 | 56 | 953.4 |
| 20260504034554 | 50 | 229 | 4.0 | 7.0 | 0.00 | 0.00 | 0.00 | 55 | 953.4 |
| 20260504033055 | 50 | 255 | 7.0 | 14.0 | 0.00 | 0.00 | 0.00 | 54 | 953.4 |
| 20260504031550 | 50 | 300 | 5.0 | 10.0 | 0.00 | 0.00 | 0.00 | 54 | 953.6 |
| 20260504030050 | 50 | 263 | 8.0 | 14.0 | 0.00 | 0.00 | 0.00 | 55 | 953.7 |
| 20260504024548 | 49 | 275 | 5.0 | 11.0 | 0.00 | 0.00 | 0.00 | 56 | 953.7 |
| 20260504023047 | 49 | 297 | 4.0 | 10.0 | 0.00 | 0.00 | 0.00 | 56 | 953.8 |
| 20260504021545 | 50 | 272 | 5.0 | 14.0 | 0.00 | 0.00 | 0.00 | 56 | 954.0 |
| 20260504020045 | 50 | 286 | 7.0 | 18.0 | 0.00 | 0.00 | 0.00 | 55 | 954.0 |
| 20260504014547 | 49 | 340 | 8.0 | 18.0 | 0.00 | 0.00 | 0.00 | 56 | 953.7 |
| 20260504013049 | 49 | 51 | 3.0 | 13.0 | 0.00 | 0.00 | 0.00 | 57 | 953.7 |
| 20260504011548 | 49 | 257 | 7.0 | 12.0 | 0.00 | 0.00 | 0.00 | 57 | 953.8 |